Terug naar catalogus

SCOUT B DEB

ActiefPO
NORAD 29279·DEBRIS·🇺🇸 United States

Gelanceerd Aug 8, 1968 vanaf Vandenberg Space Force Base

Loading…

Volgende Passages (komende 24 uur)

TLE

VersSource: Space-Track

Epoch: Sep 12, 2026, 03:03 UTC

1 29279U 68066N   26255.12730593  .00007990  00000-0  35592-2 0  9996
2 29279  80.5920 203.9152 0510199  30.4993 332.4797 13.70401614 63438

Volg SCOUT B DEB in realtime met AllMySat

Download on the App Store